EN

Hourly Weather Fremantle

Today, 27 November, Friday

Time Temperature Precipitation Wind Pressure Humidity
00:00 +16°C° 0 mm 6 mps 759 mmHg 68%
01:00 +16°C° 0 mm 6 mps 759 mmHg 67%
02:00 +16°C° 0 mm 6 mps 759 mmHg 67%
03:00 +15°C° 0 mm 5 mps 759 mmHg 68%
04:00 +15°C° 0 mm 5 mps 759 mmHg 69%
05:00 +14°C° 0 mm 4 mps 760 mmHg 70%
06:00 +15°C° 0 mm 4 mps 760 mmHg 66%
07:00 +17°C° 0 mm 3 mps 760 mmHg 63%
08:00 +18°C° 0 mm 2 mps 761 mmHg 59%
09:00 +19°C° 0 mm 3 mps 761 mmHg 57%
10:00 +20°C° 0 mm 3 mps 761 mmHg 55%
11:00 +20°C° 0 mm 3 mps 760 mmHg 53%
12:00 +21°C° 0 mm 4 mps 760 mmHg 53%
13:00 +21°C° 0 mm 5 mps 759 mmHg 53%
14:00 +21°C° 0 mm 6 mps 759 mmHg 53%
15:00 +21°C° 0 mm 6 mps 759 mmHg 56%
16:00 +21°C° 0 mm 6 mps 759 mmHg 59%
17:00 +20°C° 0 mm 7 mps 759 mmHg 62%
18:00 +20°C° 0 mm 7 mps 760 mmHg 64%
19:00 +18°C° 0 mm 7 mps 760 mmHg 67%
20:00 +17°C° 0 mm 7 mps 761 mmHg 70%
21:00 +17°C° 0.1 mm 7 mps 761 mmHg 69%
22:00 +16°C° 0.1 mm 7 mps 762 mmHg 69%
23:00 +16°C° 0.1 mm 7 mps 762 mmHg 69%

Tomorrow, 28 November, Saturday

Time Temperature Precipitation Wind Pressure Humidity
00:00 +15°C° 0 mm 7 mps 762 mmHg 70%
01:00 +15°C° 0 mm 7 mps 761 mmHg 70%
02:00 +14°C° 0 mm 6 mps 761 mmHg 71%
03:00 +13°C° 0 mm 6 mps 762 mmHg 72%
04:00 +13°C° 0 mm 6 mps 762 mmHg 73%
05:00 +11°C° 0 mm 6 mps 762 mmHg 75%
06:00 +14°C° 0 mm 6 mps 762 mmHg 70%
07:00 +15°C° 0 mm 6 mps 763 mmHg 65%
08:00 +16°C° 0 mm 7 mps 763 mmHg 60%
09:00 +17°C° 0 mm 6 mps 763 mmHg 53%
10:00 +20°C° 0 mm 6 mps 762 mmHg 46%
11:00 +22°C° 0 mm 5 mps 762 mmHg 39%
12:00 +22°C° 0 mm 6 mps 761 mmHg 43%
13:00 +22°C° 0 mm 7 mps 761 mmHg 46%
14:00 +22°C° 0 mm 8 mps 760 mmHg 49%
15:00 +21°C° 0 mm 9 mps 760 mmHg 53%
16:00 +21°C° 0 mm 9 mps 760 mmHg 57%
17:00 +19°C° 0 mm 10 mps 759 mmHg 62%
18:00 +18°C° 0 mm 9 mps 760 mmHg 63%
19:00 +18°C° 0 mm 9 mps 760 mmHg 65%
20:00 +17°C° 0 mm 8 mps 760 mmHg 66%
21:00 +17°C° 0 mm 8 mps 760 mmHg 65%
22:00 +16°C° 0 mm 7 mps 760 mmHg 63%
23:00 +16°C° 0 mm 6 mps 760 mmHg 62%

Day after tomorrow, 29 November, Sunday

Time Temperature Precipitation Wind Pressure Humidity
00:00 +16°C° 0 mm 5 mps 759 mmHg 61%
01:00 +17°C° 0 mm 4 mps 759 mmHg 60%
02:00 +16°C° 0 mm 3 mps 758 mmHg 58%
03:00 +17°C° 0 mm 3 mps 758 mmHg 56%
04:00 +17°C° 0 mm 2 mps 758 mmHg 53%
05:00 +17°C° 0 mm 2 mps 758 mmHg 51%
06:00 +19°C° 0 mm 1 mps 758 mmHg 49%
07:00 +20°C° 0 mm 1 mps 758 mmHg 46%
08:00 +22°C° 0 mm 1 mps 758 mmHg 44%
09:00 +21°C° 0 mm 2 mps 757 mmHg 46%
10:00 +22°C° 0 mm 4 mps 757 mmHg 47%
11:00 +22°C° 0 mm 6 mps 757 mmHg 49%
12:00 +22°C° 0 mm 6 mps 756 mmHg 53%
13:00 +21°C° 0 mm 7 mps 756 mmHg 57%
14:00 +21°C° 0 mm 8 mps 755 mmHg 61%
15:00 +20°C° 0 mm 8 mps 755 mmHg 61%
16:00 +20°C° 0 mm 8 mps 755 mmHg 62%
17:00 +18°C° 0 mm 9 mps 756 mmHg 63%
18:00 +18°C° 0 mm 8 mps 756 mmHg 65%
19:00 +17°C° 0 mm 8 mps 756 mmHg 68%
20:00 +16°C° 0 mm 7 mps 756 mmHg 70%
21:00 +17°C° 0 mm 7 mps 757 mmHg 70%
22:00 +17°C° 0 mm 7 mps 757 mmHg 70%
23:00 +17°C° 0 mm 6 mps 757 mmHg 70%

30 November, Monday

Time Temperature Precipitation Wind Pressure Humidity
00:00 +17°C° 0.1 mm 7 mps 757 mmHg 69%
01:00 +17°C° 0.1 mm 7 mps 756 mmHg 68%
02:00 +17°C° 0.1 mm 8 mps 756 mmHg 67%
03:00 +17°C° 0.2 mm 8 mps 756 mmHg 69%
04:00 +17°C° 0.2 mm 9 mps 756 mmHg 70%
05:00 +16°C° 0.2 mm 9 mps 756 mmHg 71%
06:00 +16°C° 0.5 mm 10 mps 757 mmHg 69%
07:00 +16°C° 0.5 mm 10 mps 758 mmHg 67%
08:00 +16°C° 0.5 mm 11 mps 758 mmHg 65%
09:00 +16°C° 0.1 mm 10 mps 759 mmHg 59%
10:00 +17°C° 0.1 mm 10 mps 759 mmHg 54%
11:00 +17°C° 0.1 mm 10 mps 759 mmHg 48%
12:00 +17°C° 0 mm 10 mps 760 mmHg 49%
13:00 +17°C° 0 mm 10 mps 760 mmHg 50%
14:00 +17°C° 0 mm 10 mps 760 mmHg 51%
15:00 +17°C° 0 mm 10 mps 761 mmHg 51%
16:00 +17°C° 0 mm 9 mps 761 mmHg 52%
17:00 +17°C° 0 mm 9 mps 761 mmHg 52%
18:00 +16°C° 0 mm 9 mps 762 mmHg 54%
19:00 +16°C° 0 mm 8 mps 763 mmHg 55%
20:00 +15°C° 0 mm 8 mps 764 mmHg 57%
21:00 +15°C° 0 mm 8 mps 764 mmHg 56%
22:00 +14°C° 0 mm 7 mps 765 mmHg 54%
23:00 +14°C° 0 mm 7 mps 765 mmHg 53%

1 December, Tuesday

Time Temperature Precipitation Wind Pressure Humidity
00:00 +12°C° 0 mm 7 mps 765 mmHg 55%
01:00 +11°C° 0 mm 6 mps 765 mmHg 57%
02:00 +11°C° 0 mm 6 mps 765 mmHg 59%
03:00 +12°C° 0 mm 5 mps 765 mmHg 60%
04:00 +11°C° 0 mm 4 mps 766 mmHg 60%
05:00 +11°C° 0 mm 4 mps 766 mmHg 60%
06:00 +12°C° 0 mm 4 mps 767 mmHg 56%
07:00 +14°C° 0 mm 4 mps 767 mmHg 51%
08:00 +15°C° 0 mm 4 mps 768 mmHg 46%
09:00 +17°C° 0 mm 3 mps 767 mmHg 42%
10:00 +19°C° 0 mm 3 mps 767 mmHg 38%
11:00 +21°C° 0 mm 2 mps 766 mmHg 34%
12:00 +20°C° 0 mm 4 mps 766 mmHg 38%
13:00 +20°C° 0 mm 5 mps 765 mmHg 43%
14:00 +20°C° 0 mm 7 mps 765 mmHg 47%
15:00 +20°C° 0 mm 7 mps 765 mmHg 49%
16:00 +18°C° 0 mm 8 mps 764 mmHg 51%
17:00 +18°C° 0 mm 8 mps 764 mmHg 54%
18:00 +18°C° 0 mm 8 mps 764 mmHg 57%
19:00 +17°C° 0 mm 8 mps 764 mmHg 60%
20:00 +16°C° 0 mm 7 mps 765 mmHg 64%
21:00 +16°C° 0 mm 7 mps 765 mmHg 66%
22:00 +15°C° 0 mm 7 mps 765 mmHg 67%
23:00 +15°C° 0 mm 6 mps 765 mmHg 69%

2 December, Wednesday

Time Temperature Precipitation Wind Pressure Humidity
00:00 +15°C° 0 mm 6 mps 765 mmHg 66%
01:00 +15°C° 0 mm 5 mps 764 mmHg 63%
02:00 +14°C° 0 mm 4 mps 764 mmHg 60%
03:00 +14°C° 0 mm 4 mps 764 mmHg 58%
04:00 +15°C° 0 mm 4 mps 764 mmHg 55%
05:00 +15°C° 0 mm 5 mps 764 mmHg 53%
06:00 +16°C° 0 mm 5 mps 764 mmHg 49%
07:00 +19°C° 0 mm 4 mps 764 mmHg 46%
08:00 +20°C° 0 mm 4 mps 764 mmHg 42%
09:00 +22°C° 0 mm 3 mps 764 mmHg 38%
10:00 +25°C° 0 mm 2 mps 763 mmHg 34%
11:00 +27°C° 0 mm 1 mps 763 mmHg 30%
12:00 +27°C° 0 mm 3 mps 762 mmHg 33%
13:00 +27°C° 0 mm 5 mps 762 mmHg 35%
14:00 +27°C° 0 mm 7 mps 761 mmHg 37%
15:00 +26°C° 0 mm 7 mps 761 mmHg 41%
16:00 +24°C° 0 mm 8 mps 761 mmHg 45%
17:00 +23°C° 0 mm 8 mps 760 mmHg 49%
18:00 +23°C° 0 mm 8 mps 761 mmHg 50%
19:00 +22°C° 0 mm 7 mps 761 mmHg 51%
20:00 +21°C° 0 mm 7 mps 761 mmHg 51%
21:00 +21°C° 0 mm 6 mps 761 mmHg 49%
22:00 +20°C° 0 mm 6 mps 761 mmHg 46%
23:00 +20°C° 0 mm 6 mps 761 mmHg 43%
Show more